Year,Month,Day,Hour,Minute,Value (Times are PST for temperature in C)
2012,10,01,00,00,9.50
2012,10,01,00,01,9.40
2012,10,01,00,02,9.40
2012,10,01,00,03,9.40
2012,10,01,00,04,9.40
2012,10,01,00,05,9.40
2012,10,01,00,06,9.40
2012,10,01,00,07,9.40
2012,10,01,00,08,9.50
2012,10,01,00,09,9.50
2012,10,01,00,10,9.60
2012,10,01,00,11,9.60
2012,10,01,00,12,9.70
2012,10,01,00,13,9.70
2012,10,01,00,14,9.80
2012,10,01,00,15,9.90
2012,10,01,00,16,9.90
2012,10,01,00,17,10.00
2012,10,01,00,18,10.10
2012,10,01,00,19,10.10
2012,10,01,00,20,10.20
2012,10,01,00,21,10.20
2012,10,01,00,22,10.20
2012,10,01,00,23,10.30
2012,10,01,00,24,10.30
2012,10,01,00,25,10.30
2012,10,01,00,26,10.30
2012,10,01,00,27,10.30
2012,10,01,00,28,10.40
2012,10,01,00,29,10.40
2012,10,01,00,30,10.40
2012,10,01,00,31,10.40
2012,10,01,00,32,10.40
2012,10,01,00,33,10.40
2012,10,01,00,34,10.40
2012,10,01,00,35,10.40
2012,10,01,00,36,10.40
2012,10,01,00,37,10.40
2012,10,01,00,38,10.40
2012,10,01,00,39,10.40
2012,10,01,00,40,10.40
2012,10,01,00,41,10.40
2012,10,01,00,42,10.40
2012,10,01,00,43,10.40
2012,10,01,00,44,10.40
2012,10,01,00,45,10.40
2012,10,01,00,46,10.40
2012,10,01,00,47,10.40
2012,10,01,00,48,10.40
2012,10,01,00,49,10.30
2012,10,01,00,50,10.30
2012,10,01,00,51,10.30
2012,10,01,00,52,10.30
2012,10,01,00,53,10.30
2012,10,01,00,54,10.30
2012,10,01,00,55,10.30
2012,10,01,00,56,10.30
2012,10,01,00,57,10.30
2012,10,01,00,58,10.30
2012,10,01,00,59,10.30
2012,10,01,01,00,10.30
2012,10,01,01,01,10.30
2012,10,01,01,02,10.30
2012,10,01,01,03,10.30
2012,10,01,01,04,10.30
2012,10,01,01,05,10.30
2012,10,01,01,06,10.30
2012,10,01,01,07,10.30
2012,10,01,01,08,10.30
2012,10,01,01,09,10.30
2012,10,01,01,10,10.30
2012,10,01,01,11,10.30
2012,10,01,01,12,10.30
2012,10,01,01,13,10.20
2012,10,01,01,14,10.20
2012,10,01,01,15,10.20
2012,10,01,01,16,10.20
2012,10,01,01,17,10.20
2012,10,01,01,18,10.20
2012,10,01,01,19,10.20
2012,10,01,01,20,10.20
2012,10,01,01,21,10.20
2012,10,01,01,22,10.20
2012,10,01,01,23,10.20
2012,10,01,01,24,10.10
2012,10,01,01,25,10.10
2012,10,01,01,26,10.10
2012,10,01,01,27,10.10
2012,10,01,01,28,10.10
2012,10,01,01,29,10.10
2012,10,01,01,30,10.10
2012,10,01,01,31,10.10
2012,10,01,01,32,10.10
2012,10,01,01,33,10.10
2012,10,01,01,34,10.10
2012,10,01,01,35,10.00
2012,10,01,01,36,9.90
2012,10,01,01,37,9.90
2012,10,01,01,38,9.90
2012,10,01,01,39,9.80
2012,10,01,01,40,9.80
2012,10,01,01,41,9.70
2012,10,01,01,42,9.70
2012,10,01,01,43,9.70
2012,10,01,01,44,9.70
2012,10,01,01,45,9.70
2012,10,01,01,46,9.60
2012,10,01,01,47,9.60
2012,10,01,01,48,9.60
2012,10,01,01,49,9.60
2012,10,01,01,50,9.60
2012,10,01,01,51,9.60
2012,10,01,01,52,9.60
2012,10,01,01,53,9.50
2012,10,01,01,54,9.50
2012,10,01,01,55,9.50
2012,10,01,01,56,9.50
2012,10,01,01,57,9.50
2012,10,01,01,58,9.40
2012,10,01,01,59,9.40
2012,10,01,02,00,9.40
2012,10,01,02,01,9.40
2012,10,01,02,02,9.40
2012,10,01,02,03,9.30
2012,10,01,02,04,9.30
2012,10,01,02,05,9.30
2012,10,01,02,06,9.30
2012,10,01,02,07,9.20
2012,10,01,02,08,9.30
2012,10,01,02,09,9.30
2012,10,01,02,10,9.30
2012,10,01,02,11,9.20
2012,10,01,02,12,9.20
2012,10,01,02,13,9.20
2012,10,01,02,14,9.20
2012,10,01,02,15,9.20
2012,10,01,02,16,9.20
2012,10,01,02,17,9.20
2012,10,01,02,18,9.20
2012,10,01,02,19,9.20
2012,10,01,02,20,9.20
2012,10,01,02,21,9.10
2012,10,01,02,22,9.10
2012,10,01,02,23,9.10
2012,10,01,02,24,9.10
2012,10,01,02,25,9.10
2012,10,01,02,26,9.00
2012,10,01,02,27,9.00
2012,10,01,02,28,9.00
2012,10,01,02,29,9.00
2012,10,01,02,30,8.90
2012,10,01,02,31,8.90
2012,10,01,02,32,8.90
2012,10,01,02,33,8.90
2012,10,01,02,34,8.90
2012,10,01,02,35,8.90
2012,10,01,02,36,8.90
2012,10,01,02,37,8.90
2012,10,01,02,38,8.90
2012,10,01,02,39,8.80
2012,10,01,02,40,8.80
2012,10,01,02,41,8.80
2012,10,01,02,42,8.70
2012,10,01,02,43,8.70
2012,10,01,02,44,8.70
2012,10,01,02,45,8.70
2012,10,01,02,46,8.70
2012,10,01,02,47,8.70
2012,10,01,02,48,8.70
2012,10,01,02,49,8.70
2012,10,01,02,50,8.70
2012,10,01,02,51,8.70
2012,10,01,02,52,8.70
2012,10,01,02,53,8.70
2012,10,01,02,54,8.70
2012,10,01,02,55,8.70
2012,10,01,02,56,8.60
2012,10,01,02,57,8.60
2012,10,01,02,58,8.60
2012,10,01,02,59,8.60
2012,10,01,03,00,8.60
2012,10,01,03,01,8.60
2012,10,01,03,02,8.60
2012,10,01,03,03,8.60
2012,10,01,03,04,8.60
2012,10,01,03,05,8.60
2012,10,01,03,06,8.60
2012,10,01,03,07,8.60
2012,10,01,03,08,8.60
2012,10,01,03,09,8.60
2012,10,01,03,10,8.60
2012,10,01,03,11,8.60
2012,10,01,03,12,8.50
2012,10,01,03,13,8.50
2012,10,01,03,14,8.50
2012,10,01,03,15,8.50
2012,10,01,03,16,8.50
2012,10,01,03,17,8.50
2012,10,01,03,18,8.50
2012,10,01,03,19,8.50
2012,10,01,03,20,8.50
2012,10,01,03,21,8.40
2012,10,01,03,22,8.40
2012,10,01,03,23,8.40
2012,10,01,03,24,8.40
2012,10,01,03,25,8.40
2012,10,01,03,26,8.40
2012,10,01,03,27,8.50
2012,10,01,03,28,8.50
2012,10,01,03,29,8.50
2012,10,01,03,30,8.50
2012,10,01,03,31,8.50
2012,10,01,03,32,8.50
2012,10,01,03,33,8.40
2012,10,01,03,34,8.40
2012,10,01,03,35,8.40
2012,10,01,03,36,8.40
2012,10,01,03,37,8.40
2012,10,01,03,38,8.40
2012,10,01,03,39,8.40
2012,10,01,03,40,8.40
2012,10,01,03,41,8.40
2012,10,01,03,42,8.40
2012,10,01,03,43,8.30
2012,10,01,03,44,8.30
2012,10,01,03,45,8.30
2012,10,01,03,46,8.40
2012,10,01,03,47,8.30
2012,10,01,03,48,8.30
2012,10,01,03,49,8.30
2012,10,01,03,50,8.30
2012,10,01,03,51,8.30
2012,10,01,03,52,8.20
2012,10,01,03,53,8.20
2012,10,01,03,54,8.20
2012,10,01,03,55,8.20
2012,10,01,03,56,8.20
2012,10,01,03,57,8.20
2012,10,01,03,58,8.20
2012,10,01,03,59,8.20
2012,10,01,04,00,8.20
2012,10,01,04,01,8.20
2012,10,01,04,02,8.20
2012,10,01,04,03,8.20
2012,10,01,04,04,8.20
2012,10,01,04,05,8.20
2012,10,01,04,06,8.20
2012,10,01,04,07,8.20
2012,10,01,04,08,8.20
2012,10,01,04,09,8.20
2012,10,01,04,10,8.20
2012,10,01,04,11,8.20
2012,10,01,04,12,8.10
2012,10,01,04,13,8.10
2012,10,01,04,14,8.10
2012,10,01,04,15,8.10
2012,10,01,04,16,8.10
2012,10,01,04,17,8.10
2012,10,01,04,18,8.10
2012,10,01,04,19,8.00
2012,10,01,04,20,8.00
2012,10,01,04,21,8.00
2012,10,01,04,22,7.90
2012,10,01,04,23,7.90
2012,10,01,04,24,7.90
2012,10,01,04,25,7.90
2012,10,01,04,26,7.90
2012,10,01,04,27,7.90
2012,10,01,04,28,7.90
2012,10,01,04,29,7.90
2012,10,01,04,30,7.90
2012,10,01,04,31,7.90
2012,10,01,04,32,7.90
2012,10,01,04,33,7.90
2012,10,01,04,34,8.00
2012,10,01,04,35,8.00
2012,10,01,04,36,8.00
2012,10,01,04,37,8.00
2012,10,01,04,38,7.90
2012,10,01,04,39,7.90
2012,10,01,04,40,7.80
2012,10,01,04,41,7.80
2012,10,01,04,42,7.80
2012,10,01,04,43,7.80
2012,10,01,04,44,7.70
2012,10,01,04,45,7.70
2012,10,01,04,46,7.70
2012,10,01,04,47,7.70
2012,10,01,04,48,7.70
2012,10,01,04,49,7.70
2012,10,01,04,50,7.80
2012,10,01,04,51,7.80
2012,10,01,04,52,7.80
2012,10,01,04,53,7.80
2012,10,01,04,54,7.80
2012,10,01,04,55,7.80
2012,10,01,04,56,7.80
2012,10,01,04,57,7.80
2012,10,01,04,58,7.80
2012,10,01,04,59,7.80
2012,10,01,05,00,7.80
2012,10,01,05,01,7.80
2012,10,01,05,02,7.80
2012,10,01,05,03,7.80
2012,10,01,05,04,7.70
2012,10,01,05,05,7.70
2012,10,01,05,06,7.60
2012,10,01,05,07,7.60
2012,10,01,05,08,7.60
2012,10,01,05,09,7.50
2012,10,01,05,10,7.50
2012,10,01,05,11,7.50
2012,10,01,05,12,7.60
2012,10,01,05,13,7.60
2012,10,01,05,14,7.60
2012,10,01,05,15,7.60
2012,10,01,05,16,7.60
2012,10,01,05,17,7.60
2012,10,01,05,18,7.60
2012,10,01,05,19,7.60
2012,10,01,05,20,7.60
2012,10,01,05,21,7.60
2012,10,01,05,22,7.60
2012,10,01,05,23,7.60
2012,10,01,05,24,7.60
2012,10,01,05,25,7.50
2012,10,01,05,26,7.50
2012,10,01,05,27,7.50
2012,10,01,05,28,7.50
2012,10,01,05,29,7.50
2012,10,01,05,30,7.50
2012,10,01,05,31,7.50
2012,10,01,05,32,7.50
2012,10,01,05,33,7.60
2012,10,01,05,34,7.60
2012,10,01,05,35,7.60
2012,10,01,05,36,7.60
2012,10,01,05,37,7.60
2012,10,01,05,38,7.60
2012,10,01,05,39,7.60
2012,10,01,05,40,7.60
2012,10,01,05,41,7.60
2012,10,01,05,42,7.60
2012,10,01,05,43,7.50
2012,10,01,05,44,7.50
2012,10,01,05,45,7.50
2012,10,01,05,46,7.50
2012,10,01,05,47,7.50
2012,10,01,05,48,7.50
2012,10,01,05,49,7.50
2012,10,01,05,50,7.50
2012,10,01,05,51,7.50
2012,10,01,05,52,7.50
2012,10,01,05,53,7.50
2012,10,01,05,54,7.50
2012,10,01,05,55,7.50
2012,10,01,05,56,7.50
2012,10,01,05,57,7.50
2012,10,01,05,58,7.50
2012,10,01,05,59,7.50
2012,10,01,06,00,7.50
2012,10,01,06,01,7.60
2012,10,01,06,02,7.60
2012,10,01,06,03,7.50
2012,10,01,06,04,7.50
2012,10,01,06,05,7.40
2012,10,01,06,06,7.40
2012,10,01,06,07,7.30
2012,10,01,06,08,7.30
2012,10,01,06,09,7.30
2012,10,01,06,10,7.30
2012,10,01,06,11,7.30
2012,10,01,06,12,7.30
2012,10,01,06,13,7.30
2012,10,01,06,14,7.30
2012,10,01,06,15,7.30
2012,10,01,06,16,7.30
2012,10,01,06,17,7.30
2012,10,01,06,18,7.40
2012,10,01,06,19,7.40
2012,10,01,06,20,7.40
2012,10,01,06,21,7.40
2012,10,01,06,22,7.40
2012,10,01,06,23,7.40
2012,10,01,06,24,7.40
2012,10,01,06,25,7.40
2012,10,01,06,26,7.40
2012,10,01,06,27,7.40
2012,10,01,06,28,7.40
2012,10,01,06,29,7.30
2012,10,01,06,30,7.30
2012,10,01,06,31,7.30
2012,10,01,06,32,7.30
2012,10,01,06,33,7.30
2012,10,01,06,34,7.30
2012,10,01,06,35,7.30
2012,10,01,06,36,7.30
2012,10,01,06,37,7.30
2012,10,01,06,38,7.30
2012,10,01,06,39,7.30
2012,10,01,06,40,7.30
2012,10,01,06,41,7.30
2012,10,01,06,42,7.30
2012,10,01,06,43,7.30
2012,10,01,06,44,7.30
2012,10,01,06,45,7.30
2012,10,01,06,46,7.30
2012,10,01,06,47,7.30
2012,10,01,06,48,7.30
2012,10,01,06,49,7.30
2012,10,01,06,50,7.30
2012,10,01,06,51,7.30
2012,10,01,06,52,7.30
2012,10,01,06,53,7.30
2012,10,01,06,54,7.30
2012,10,01,06,55,7.30
2012,10,01,06,56,7.30
2012,10,01,06,57,7.30
2012,10,01,06,58,7.30
2012,10,01,06,59,7.30
2012,10,01,07,00,7.30
2012,10,01,07,01,7.30
2012,10,01,07,02,7.30
2012,10,01,07,03,7.30
2012,10,01,07,04,7.30
2012,10,01,07,05,7.30
2012,10,01,07,06,7.30
2012,10,01,07,07,7.20
2012,10,01,07,08,7.10
2012,10,01,07,09,7.10
2012,10,01,07,10,7.10
2012,10,01,07,11,7.10
2012,10,01,07,12,7.10
2012,10,01,07,13,7.00
2012,10,01,07,14,7.00
2012,10,01,07,15,7.10
2012,10,01,07,16,7.10
2012,10,01,07,17,7.10
2012,10,01,07,18,7.10
2012,10,01,07,19,7.10
2012,10,01,07,20,7.10
2012,10,01,07,21,7.20
2012,10,01,07,22,7.30
2012,10,01,07,23,7.30
2012,10,01,07,24,7.30
2012,10,01,07,25,7.30
2012,10,01,07,26,7.30
2012,10,01,07,27,7.30
2012,10,01,07,28,7.30
2012,10,01,07,29,7.30
2012,10,01,07,30,7.40
2012,10,01,07,31,7.40
2012,10,01,07,32,7.40
2012,10,01,07,33,7.40
2012,10,01,07,34,7.40
2012,10,01,07,35,7.40
2012,10,01,07,36,7.40
2012,10,01,07,37,7.40
2012,10,01,07,38,7.40
2012,10,01,07,39,7.40
2012,10,01,07,40,7.40
2012,10,01,07,41,7.40
2012,10,01,07,42,7.40
2012,10,01,07,43,7.40
2012,10,01,07,44,7.40
2012,10,01,07,45,7.30
2012,10,01,07,46,7.30
2012,10,01,07,47,7.30
2012,10,01,07,48,7.30
2012,10,01,07,49,7.40
2012,10,01,07,50,7.40
2012,10,01,07,51,7.40
2012,10,01,07,52,7.40
2012,10,01,07,53,7.50
2012,10,01,07,54,7.50
2012,10,01,07,55,7.50
2012,10,01,07,56,7.50
2012,10,01,07,57,7.60
2012,10,01,07,58,7.60
2012,10,01,07,59,7.60
2012,10,01,08,00,7.60
2012,10,01,08,01,7.70
2012,10,01,08,02,7.80
2012,10,01,08,03,7.80
2012,10,01,08,04,7.90
2012,10,01,08,05,8.00
2012,10,01,08,06,8.10
2012,10,01,08,07,8.10
2012,10,01,08,08,8.10
2012,10,01,08,09,8.20
2012,10,01,08,10,8.20
2012,10,01,08,11,8.20
2012,10,01,08,12,8.20
2012,10,01,08,13,8.30
2012,10,01,08,14,8.40
2012,10,01,08,15,8.50
2012,10,01,08,16,8.50
2012,10,01,08,17,8.70
2012,10,01,08,18,8.80
2012,10,01,08,19,8.90
2012,10,01,08,20,8.90
2012,10,01,08,21,9.00
2012,10,01,08,22,9.10
2012,10,01,08,23,9.20
2012,10,01,08,24,9.30
2012,10,01,08,25,9.40
2012,10,01,08,26,9.50
2012,10,01,08,27,9.60
2012,10,01,08,28,9.70
2012,10,01,08,29,9.80
2012,10,01,08,30,9.90
2012,10,01,08,31,10.00
2012,10,01,08,32,10.10
2012,10,01,08,33,10.20
2012,10,01,08,34,10.20
2012,10,01,08,35,10.30
2012,10,01,08,36,10.40
2012,10,01,08,37,10.50
2012,10,01,08,38,10.60
2012,10,01,08,39,10.60
2012,10,01,08,40,10.70
2012,10,01,08,41,10.80
2012,10,01,08,42,10.80
2012,10,01,08,43,10.90
2012,10,01,08,44,10.90
2012,10,01,08,45,10.90
2012,10,01,08,46,11.00
2012,10,01,08,47,11.10
2012,10,01,08,48,11.10
2012,10,01,08,49,11.20
2012,10,01,08,50,11.20
2012,10,01,08,51,11.30
2012,10,01,08,52,11.40
2012,10,01,08,53,11.40
2012,10,01,08,54,11.50
2012,10,01,08,55,11.60
2012,10,01,08,56,11.60
2012,10,01,08,57,11.60
2012,10,01,08,58,11.70
2012,10,01,08,59,11.70
2012,10,01,09,00,11.70
2012,10,01,09,01,11.70
2012,10,01,09,02,11.70
2012,10,01,09,03,11.70
2012,10,01,09,04,11.80
2012,10,01,09,05,11.80
2012,10,01,09,06,11.80
2012,10,01,09,07,11.90
2012,10,01,09,08,12.00
2012,10,01,09,09,12.10
2012,10,01,09,10,12.20
2012,10,01,09,11,12.30
2012,10,01,09,12,12.40
2012,10,01,09,13,12.50
2012,10,01,09,14,12.50
2012,10,01,09,15,12.60
2012,10,01,09,16,12.70
2012,10,01,09,17,12.80
2012,10,01,09,18,12.80
2012,10,01,09,19,12.80
2012,10,01,09,20,12.90
2012,10,01,09,21,12.90
2012,10,01,09,22,13.00
2012,10,01,09,23,13.10
2012,10,01,09,24,13.10
2012,10,01,09,25,13.00
2012,10,01,09,26,13.00
2012,10,01,09,27,13.00
2012,10,01,09,28,13.10
2012,10,01,09,29,13.10
2012,10,01,09,30,13.10
2012,10,01,09,31,13.10
2012,10,01,09,32,13.10
2012,10,01,09,33,13.10
2012,10,01,09,34,13.10
2012,10,01,09,35,13.10
2012,10,01,09,36,13.10
2012,10,01,09,37,13.20
2012,10,01,09,38,13.30
2012,10,01,09,39,13.30
2012,10,01,09,40,13.40
2012,10,01,09,41,13.50
2012,10,01,09,42,13.60
2012,10,01,09,43,13.70
2012,10,01,09,44,13.70
2012,10,01,09,45,13.70
2012,10,01,09,46,13.70
2012,10,01,09,47,13.70
2012,10,01,09,48,13.60
2012,10,01,09,49,13.60
2012,10,01,09,50,13.50
2012,10,01,09,51,13.40
2012,10,01,09,52,13.30
2012,10,01,09,53,13.30
2012,10,01,09,54,13.20
2012,10,01,09,55,13.10
2012,10,01,09,56,13.10
2012,10,01,09,57,13.00
2012,10,01,09,58,13.00
2012,10,01,09,59,12.90
2012,10,01,10,00,12.90
2012,10,01,10,01,12.80
2012,10,01,10,02,12.80
2012,10,01,10,03,12.80
2012,10,01,10,04,12.80
2012,10,01,10,05,12.90
2012,10,01,10,06,13.00
2012,10,01,10,07,13.10
2012,10,01,10,08,13.20
2012,10,01,10,09,13.20
2012,10,01,10,10,13.30
2012,10,01,10,11,13.20
2012,10,01,10,12,13.20
2012,10,01,10,13,13.10
2012,10,01,10,14,13.00
2012,10,01,10,15,13.00
2012,10,01,10,16,12.90
2012,10,01,10,17,12.90
2012,10,01,10,18,13.00
2012,10,01,10,19,13.00
2012,10,01,10,20,13.00
2012,10,01,10,21,13.10
2012,10,01,10,22,13.10
2012,10,01,10,23,13.10
2012,10,01,10,24,13.20
2012,10,01,10,25,13.30
2012,10,01,10,26,13.20
2012,10,01,10,27,13.10
2012,10,01,10,28,13.10
2012,10,01,10,29,13.10
2012,10,01,10,30,13.10
2012,10,01,10,31,13.10
2012,10,01,10,32,13.20
2012,10,01,10,33,13.30
2012,10,01,10,34,13.30
2012,10,01,10,35,13.40
2012,10,01,10,36,13.50
2012,10,01,10,37,13.60
2012,10,01,10,38,13.70
2012,10,01,10,39,13.80
2012,10,01,10,40,13.70
2012,10,01,10,41,13.70
2012,10,01,10,42,13.70
2012,10,01,10,43,13.70
2012,10,01,10,44,13.80
2012,10,01,10,45,13.80
2012,10,01,10,46,13.80
2012,10,01,10,47,13.90
2012,10,01,10,48,13.90
2012,10,01,10,49,14.00
2012,10,01,10,50,14.00
2012,10,01,10,51,14.10
2012,10,01,10,52,14.20
2012,10,01,10,53,14.20
2012,10,01,10,54,14.20
2012,10,01,10,55,14.20
2012,10,01,10,56,14.20
2012,10,01,10,57,14.40
2012,10,01,10,58,14.50
2012,10,01,10,59,14.60
2012,10,01,11,00,14.70
2012,10,01,11,01,14.90
2012,10,01,11,02,15.10
2012,10,01,11,03,15.20
2012,10,01,11,04,15.40
2012,10,01,11,05,15.50
2012,10,01,11,06,15.60
2012,10,01,11,07,15.70
2012,10,01,11,08,15.70
2012,10,01,11,09,15.70
2012,10,01,11,10,15.80
2012,10,01,11,11,15.80
2012,10,01,11,12,15.90
2012,10,01,11,13,16.00
2012,10,01,11,14,16.10
2012,10,01,11,15,16.10
2012,10,01,11,16,16.20
2012,10,01,11,17,16.20
2012,10,01,11,18,16.30
2012,10,01,11,19,16.30
2012,10,01,11,20,16.30
2012,10,01,11,21,16.40
2012,10,01,11,22,16.50
2012,10,01,11,23,16.70
2012,10,01,11,24,16.70
2012,10,01,11,25,16.70
2012,10,01,11,26,16.70
2012,10,01,11,27,16.80
2012,10,01,11,28,16.90
2012,10,01,11,29,17.00
2012,10,01,11,30,17.10
2012,10,01,11,31,17.20
2012,10,01,11,32,17.30
2012,10,01,11,33,17.30
2012,10,01,11,34,17.40
2012,10,01,11,35,17.50
2012,10,01,11,36,17.70
2012,10,01,11,37,17.90
2012,10,01,11,38,18.00
2012,10,01,11,39,18.10
2012,10,01,11,40,18.10
2012,10,01,11,41,18.10
2012,10,01,11,42,18.20
2012,10,01,11,43,18.30
2012,10,01,11,44,18.40
2012,10,01,11,45,18.40
2012,10,01,11,46,18.40
2012,10,01,11,47,18.40
2012,10,01,11,48,18.50
2012,10,01,11,49,18.50
2012,10,01,11,50,18.60
2012,10,01,11,51,18.70
2012,10,01,11,52,18.80
2012,10,01,11,53,18.90
2012,10,01,11,54,18.70
2012,10,01,11,55,18.70
2012,10,01,11,56,18.80
2012,10,01,11,57,18.90
2012,10,01,11,58,18.90
2012,10,01,11,59,18.90
2012,10,01,12,00,19.00
2012,10,01,12,01,19.10
2012,10,01,12,02,19.10
2012,10,01,12,03,19.10
2012,10,01,12,04,19.10
2012,10,01,12,05,19.20
2012,10,01,12,06,19.40
2012,10,01,12,07,19.50
2012,10,01,12,08,19.60
2012,10,01,12,09,19.60
2012,10,01,12,10,19.50
2012,10,01,12,11,19.60
2012,10,01,12,12,19.60
2012,10,01,12,13,19.70
2012,10,01,12,14,19.70
2012,10,01,12,15,19.70
2012,10,01,12,16,19.70
2012,10,01,12,17,19.80
2012,10,01,12,18,19.90
2012,10,01,12,19,19.90
2012,10,01,12,20,20.00
2012,10,01,12,21,20.10
2012,10,01,12,22,20.20
2012,10,01,12,23,20.20
2012,10,01,12,24,20.20
2012,10,01,12,25,20.10
2012,10,01,12,26,20.10
2012,10,01,12,27,20.10
2012,10,01,12,28,20.10
2012,10,01,12,29,20.00
2012,10,01,12,30,20.10
2012,10,01,12,31,20.10
2012,10,01,12,32,20.10
2012,10,01,12,33,20.00
2012,10,01,12,34,19.90
2012,10,01,12,35,19.90
2012,10,01,12,36,19.90
2012,10,01,12,37,19.90
2012,10,01,12,38,19.90
2012,10,01,12,39,20.10
2012,10,01,12,40,20.10
2012,10,01,12,41,20.00
2012,10,01,12,42,20.00
2012,10,01,12,43,20.10
2012,10,01,12,44,20.20
2012,10,01,12,45,20.20
2012,10,01,12,46,20.20
2012,10,01,12,47,20.20
2012,10,01,12,48,20.30
2012,10,01,12,49,20.30
2012,10,01,12,50,20.30
2012,10,01,12,51,20.20
2012,10,01,12,52,20.30
2012,10,01,12,53,20.40
2012,10,01,12,54,20.40
2012,10,01,12,55,20.30
2012,10,01,12,56,20.50
2012,10,01,12,57,20.60
2012,10,01,12,58,20.70
2012,10,01,12,59,20.80
2012,10,01,13,00,20.90
2012,10,01,13,01,20.90
2012,10,01,13,02,20.80
2012,10,01,13,03,20.80
2012,10,01,13,04,20.70
2012,10,01,13,05,20.80
2012,10,01,13,06,20.80
2012,10,01,13,07,20.90
2012,10,01,13,08,20.90
2012,10,01,13,09,21.00
2012,10,01,13,10,21.00
2012,10,01,13,11,21.10
2012,10,01,13,12,21.10
2012,10,01,13,13,21.10
2012,10,01,13,14,21.20
2012,10,01,13,15,21.20
2012,10,01,13,16,21.30
2012,10,01,13,17,21.30
2012,10,01,13,18,21.30
2012,10,01,13,19,21.40
2012,10,01,13,20,21.50
2012,10,01,13,21,21.60
2012,10,01,13,22,21.60
2012,10,01,13,23,21.60
2012,10,01,13,24,21.60
2012,10,01,13,25,21.70
2012,10,01,13,26,21.80
2012,10,01,13,27,21.80
2012,10,01,13,28,21.80
2012,10,01,13,29,21.90
2012,10,01,13,30,21.90
2012,10,01,13,31,21.90
2012,10,01,13,32,21.80
2012,10,01,13,33,21.70
2012,10,01,13,34,21.80
2012,10,01,13,35,21.80
2012,10,01,13,36,21.80
2012,10,01,13,37,21.80
2012,10,01,13,38,21.80
2012,10,01,13,39,21.80
2012,10,01,13,40,21.70
2012,10,01,13,41,21.70
2012,10,01,13,42,21.70
2012,10,01,13,43,21.70
2012,10,01,13,44,21.70
2012,10,01,13,45,21.70
2012,10,01,13,46,21.70
2012,10,01,13,47,21.80
2012,10,01,13,48,21.80
2012,10,01,13,49,21.80
2012,10,01,13,50,21.90
2012,10,01,13,51,21.90
2012,10,01,13,52,22.00
2012,10,01,13,53,22.20
2012,10,01,13,54,22.30
2012,10,01,13,55,22.40
2012,10,01,13,56,22.60
2012,10,01,13,57,22.60
2012,10,01,13,58,22.50
2012,10,01,13,59,22.50
2012,10,01,14,00,22.40
2012,10,01,14,01,22.50
2012,10,01,14,02,22.50
2012,10,01,14,03,22.40
2012,10,01,14,04,22.50
2012,10,01,14,05,22.40
2012,10,01,14,06,22.50
2012,10,01,14,07,22.60
2012,10,01,14,08,22.70
2012,10,01,14,09,22.80
2012,10,01,14,10,22.80
2012,10,01,14,11,22.90
2012,10,01,14,12,22.90
2012,10,01,14,13,22.90
2012,10,01,14,14,22.90
2012,10,01,14,15,22.90
2012,10,01,14,16,22.90
2012,10,01,14,17,22.90
2012,10,01,14,18,22.90
2012,10,01,14,19,22.90
2012,10,01,14,20,22.90
2012,10,01,14,21,22.90
2012,10,01,14,22,22.90
2012,10,01,14,23,22.90
2012,10,01,14,24,22.90
2012,10,01,14,25,22.90
2012,10,01,14,26,22.90
2012,10,01,14,27,22.90
2012,10,01,14,28,22.80
2012,10,01,14,29,22.90
2012,10,01,14,30,22.90
2012,10,01,14,31,22.80
2012,10,01,14,32,22.70
2012,10,01,14,33,22.70
2012,10,01,14,34,22.80
2012,10,01,14,35,22.80
2012,10,01,14,36,22.70
2012,10,01,14,37,22.60
2012,10,01,14,38,22.50
2012,10,01,14,39,22.40
2012,10,01,14,40,22.40
2012,10,01,14,41,22.30
2012,10,01,14,42,22.30
2012,10,01,14,43,22.20
2012,10,01,14,44,22.20
2012,10,01,14,45,22.10
2012,10,01,14,46,22.00
2012,10,01,14,47,22.00
2012,10,01,14,48,21.90
2012,10,01,14,49,21.80
2012,10,01,14,50,21.70
2012,10,01,14,51,21.60
2012,10,01,14,52,21.60
2012,10,01,14,53,21.60
2012,10,01,14,54,21.60
2012,10,01,14,55,21.60
2012,10,01,14,56,21.60
2012,10,01,14,57,21.60
2012,10,01,14,58,21.60
2012,10,01,14,59,21.60
2012,10,01,15,00,21.60
2012,10,01,15,01,21.60
2012,10,01,15,02,21.60
2012,10,01,15,03,21.60
2012,10,01,15,04,21.60
2012,10,01,15,05,21.60
2012,10,01,15,06,21.60
2012,10,01,15,07,21.60
2012,10,01,15,08,21.60
2012,10,01,15,09,21.60
2012,10,01,15,10,21.60
2012,10,01,15,11,21.50
2012,10,01,15,12,21.60
2012,10,01,15,13,21.60
2012,10,01,15,14,21.50
2012,10,01,15,15,21.40
2012,10,01,15,16,21.40
2012,10,01,15,17,21.40
2012,10,01,15,18,21.30
2012,10,01,15,19,21.30
2012,10,01,15,20,21.40
2012,10,01,15,21,21.40
2012,10,01,15,22,21.30
2012,10,01,15,23,21.30
2012,10,01,15,24,21.30
2012,10,01,15,25,21.30
2012,10,01,15,26,21.30
2012,10,01,15,27,21.30
2012,10,01,15,28,21.30
2012,10,01,15,29,21.30
2012,10,01,15,30,21.30
2012,10,01,15,31,21.30
2012,10,01,15,32,21.30
2012,10,01,15,33,21.30
2012,10,01,15,34,21.40
2012,10,01,15,35,21.40
2012,10,01,15,36,21.40
2012,10,01,15,37,21.50
2012,10,01,15,38,21.60
2012,10,01,15,39,21.50
2012,10,01,15,40,21.40
2012,10,01,15,41,21.40
2012,10,01,15,42,21.40
2012,10,01,15,43,21.50
2012,10,01,15,44,21.60
2012,10,01,15,45,21.60
2012,10,01,15,46,21.50
2012,10,01,15,47,21.40
2012,10,01,15,48,21.30
2012,10,01,15,49,21.40
2012,10,01,15,50,21.40
2012,10,01,15,51,21.40
2012,10,01,15,52,21.50
2012,10,01,15,53,21.60
2012,10,01,15,54,21.50
2012,10,01,15,55,21.50
2012,10,01,15,56,21.60
2012,10,01,15,57,21.60
2012,10,01,15,58,21.60
2012,10,01,15,59,21.60
2012,10,01,16,00,21.50
2012,10,01,16,01,21.50
2012,10,01,16,02,21.60
2012,10,01,16,03,21.70
2012,10,01,16,04,21.80
2012,10,01,16,05,21.90
2012,10,01,16,06,21.90
2012,10,01,16,07,22.00
2012,10,01,16,08,22.00
2012,10,01,16,09,22.00
2012,10,01,16,10,22.00
2012,10,01,16,11,21.90
2012,10,01,16,12,21.80
2012,10,01,16,13,21.60
2012,10,01,16,14,21.70
2012,10,01,16,15,21.70
2012,10,01,16,16,21.70
2012,10,01,16,17,21.70
2012,10,01,16,18,21.70
2012,10,01,16,19,21.70
2012,10,01,16,20,21.70
2012,10,01,16,21,21.80
2012,10,01,16,22,21.80
2012,10,01,16,23,21.70
2012,10,01,16,24,21.80
2012,10,01,16,25,21.80
2012,10,01,16,26,21.90
2012,10,01,16,27,21.90
2012,10,01,16,28,21.90
2012,10,01,16,29,22.00
2012,10,01,16,30,22.00
2012,10,01,16,31,22.00
2012,10,01,16,32,21.90
2012,10,01,16,33,21.90
2012,10,01,16,34,21.90
2012,10,01,16,35,21.90
2012,10,01,16,36,21.90
2012,10,01,16,37,22.00
2012,10,01,16,38,22.00
2012,10,01,16,39,21.90
2012,10,01,16,40,21.90
2012,10,01,16,41,21.90
2012,10,01,16,42,22.00
2012,10,01,16,43,22.00
2012,10,01,16,44,22.00
2012,10,01,16,45,22.00
2012,10,01,16,46,21.90
2012,10,01,16,47,21.80
2012,10,01,16,48,21.80
2012,10,01,16,49,21.70
2012,10,01,16,50,21.60
2012,10,01,16,51,21.60
2012,10,01,16,52,21.60
2012,10,01,16,53,21.60
2012,10,01,16,54,21.60
2012,10,01,16,55,21.50
2012,10,01,16,56,21.40
2012,10,01,16,57,21.30
2012,10,01,16,58,21.30
2012,10,01,16,59,21.20
2012,10,01,17,00,21.20
2012,10,01,17,01,21.20
2012,10,01,17,02,21.20
2012,10,01,17,03,21.10
2012,10,01,17,04,21.10
2012,10,01,17,05,21.10
2012,10,01,17,06,21.00
2012,10,01,17,07,20.90
2012,10,01,17,08,20.80
2012,10,01,17,09,20.80
2012,10,01,17,10,20.80
2012,10,01,17,11,20.80
2012,10,01,17,12,20.70
2012,10,01,17,13,20.60
2012,10,01,17,14,20.60
2012,10,01,17,15,20.60
2012,10,01,17,16,20.60
2012,10,01,17,17,20.50
2012,10,01,17,18,20.50
2012,10,01,17,19,20.40
2012,10,01,17,20,20.30
2012,10,01,17,21,20.20
2012,10,01,17,22,20.00
2012,10,01,17,23,19.90
2012,10,01,17,24,19.90
2012,10,01,17,25,19.80
2012,10,01,17,26,19.80
2012,10,01,17,27,19.70
2012,10,01,17,28,19.70
2012,10,01,17,29,19.60
2012,10,01,17,30,19.50
2012,10,01,17,31,19.40
2012,10,01,17,32,19.40
2012,10,01,17,33,19.30
2012,10,01,17,34,19.40
2012,10,01,17,35,19.30
2012,10,01,17,36,19.30
2012,10,01,17,37,19.30
2012,10,01,17,38,19.30